Las Vegas, NV

12:31 AM PDT on October 19, 2017 (GMT -0700)
McCarran International

Weather History for KLAS - April, 2013

Change the Weather History Date:

Monday, April 29, 2013

  Actual Average Record
Temperature  
Mean Temperature 86 °F 72 °F  
Max Temperature 99 °F 83 °F 99 °F (2013)
Min Temperature 72 °F 61 °F 35 °F (1970)
Degree Days  
Heating Degree Days 0 1  
Month to date heating degree days 34 63  
Since 1 July heating degree days 1757 1943  
Cooling Degree Days 21 7  
Month to date cooling degree days 174 121  
Year to date cooling degree days 260 152  
Growing Degree Days 36 (Base 50)    
Moisture  
Dew Point 20 °F    
Average Humidity 11    
Maximum Humidity 17    
Minimum Humidity 5    
Precipitation  
Precipitation 0.00 in 0.01 in 0.21 in (1999)
Month to date precipitation 0.03 0.15  
Year to date precipitation 0.61 1.89  
Snow  
Snow 0.00 in 0.00 in 0.00 in ()
Month to date snowfall 0.0 0.0  
Since 1 July snowfall T 0.3  
Snow Depth 0.00 in    
Sea Level Pressure  
Sea Level Pressure 29.61 in    
Wind  
Wind Speed 10 mph (SSW)    
Max Wind Speed 21 mph    
Max Gust Speed 29 mph    
Visibility 10 miles    
Events      
T = Trace of Precipitation, MM = Missing Value Source: NWS Daily Summary

Daily Weather History Graph

Daily Weather History Graph

Search for Another Location

Airport or City:

Trip Planner

Search our weather history database for the weather conditions in past years. The results will help you decide how hot, cold, wet, or windy it might be!

Date:

Astronomy

Apr. 29, 2013 Rise Set
Actual Time 5:49 AM PDT 7:26 PM PDT
Civil Twilight 5:22 AM PDT 7:53 PM PDT
Nautical Twilight 4:49 AM PDT 8:27 PM PDT
Astronomical Twilight 4:14 AM PDT 9:01 PM PDT
Moon 11:52 PM PDT (4/29) 9:18 AM PDT (4/29)
Length of Visible Light 14h 31m
Length of Day
13h 36m
Waning Gibbous, 79% of the Moon is Illuminated
Apr 29
Waning Gibbous
May 2
Last Quarter
May 9
New
May 17
First Quarter
May 24
Full

Hourly Weather History & Observations

Time (PDT) Temp. Dew Point Humidity Pressure Visibility Wind Dir Wind Speed Gust Speed Precip Events Conditions
12:56 AM 78.1 °F 17.1 °F 10% 29.68 in 10.0 mi South 10.4 mph - N/A   Partly Cloudy
1:56 AM 77.0 °F 17.1 °F 10% 29.68 in 10.0 mi South 11.5 mph - N/A   Partly Cloudy
2:56 AM 75.9 °F 18.0 °F 11% 29.67 in 10.0 mi SSW 11.5 mph - N/A   Partly Cloudy
3:56 AM 73.9 °F 19.0 °F 13% 29.68 in 10.0 mi SSW 11.5 mph - N/A   Partly Cloudy
4:56 AM 75.0 °F 19.9 °F 13% 29.67 in 10.0 mi SSW 13.8 mph - N/A   Partly Cloudy
5:56 AM 75.0 °F 21.0 °F 13% 29.70 in 10.0 mi SSW 3.5 mph - N/A   Clear
6:56 AM 73.9 °F 26.1 °F 17% 29.71 in 10.0 mi South 8.1 mph - N/A   Clear
7:56 AM 79.0 °F 27.0 °F 15% 29.73 in 10.0 mi South 4.6 mph - N/A   Clear
8:56 AM 82.9 °F 26.1 °F 13% 29.72 in 10.0 mi South 9.2 mph - N/A   Clear
9:56 AM 87.1 °F 24.1 °F 10% 29.72 in 10.0 mi Calm Calm - N/A   Clear
10:56 AM 90.0 °F 24.1 °F 9% 29.71 in 10.0 mi Calm Calm - N/A   Clear
11:56 AM 91.9 °F 23.0 °F 8% 29.69 in 10.0 mi Calm Calm - N/A   Clear
12:56 PM 93.0 °F 23.0 °F 8% 29.66 in 10.0 mi South 8.1 mph - N/A   Partly Cloudy
1:56 PM 96.1 °F 19.9 °F 6% 29.62 in 10.0 mi SW 5.8 mph - N/A   Partly Cloudy
2:56 PM 98.1 °F 16.0 °F 5% 29.57 in 10.0 mi SW 18.4 mph 27.6 mph N/A   Partly Cloudy
3:56 PM 98.1 °F 16.0 °F 5% 29.54 in 10.0 mi SSW 13.8 mph 23.0 mph N/A   Partly Cloudy
4:56 PM 97.0 °F 17.1 °F 5% 29.52 in 10.0 mi Variable 6.9 mph 19.6 mph N/A   Partly Cloudy
5:56 PM 96.1 °F 18.0 °F 6% 29.51 in 10.0 mi SSW 13.8 mph 24.2 mph N/A   Partly Cloudy
6:56 PM 93.9 °F 16.0 °F 6% 29.51 in 10.0 mi SW 13.8 mph 24.2 mph N/A   Partly Cloudy
7:56 PM 91.9 °F 16.0 °F 6% 29.50 in 10.0 mi SW 12.7 mph - N/A   Partly Cloudy
8:56 PM 90.0 °F 16.0 °F 7% 29.50 in 10.0 mi SW 15.0 mph - N/A   Partly Cloudy
9:56 PM 86.0 °F 15.1 °F 7% 29.51 in 10.0 mi SSW 10.4 mph - N/A   Partly Cloudy
10:56 PM 87.1 °F 15.1 °F 7% 29.50 in 10.0 mi SW 15.0 mph - N/A   Scattered Clouds
11:56 PM 84.9 °F 28.9 °F 13% 29.51 in 10.0 mi SSW 15.0 mph - N/A   Mostly Cloudy